Precipitable_Water
1.27 1.27 1.27 1.25 1.23 1.21 1.19 1.19 1.17 1.17 1.17 1.17 1.17 1.15 1.17 1.15 1.15 1.13 1.07 1.05 1.01 1.00 0.98 0.96 0.96 0.96 0.92 0.92 0.90 0.90 0.90 0.88 0.86 0.84 0.84 0.82 0.82 0.82 0.82 0.82 0.80 0.80 0.80 0.78 0.78 0.80 0.80 0.80 0.80 0.80 0.80 0.80 0.82 0.82 0.82 0.82 0.82 0.84 0.82 0.84 0.84 0.84 0.84 0.84 0.84 0.82 0.82 0.80 0.78 0.76 0.74 0.70 0.68 0.66 0.60 0.60 0.60 0.58 0.54 0.54 0.48 0.44 0.44 0.40 0.40 0.40
1.25 1.25 1.21 1.21 1.19 1.17 1.17 1.17 1.17 1.17 1.15 1.15 1.15 1.13 1.13 1.13 1.11 1.09 1.05 1.03 1.01 1.00 0.96 0.96 0.94 0.94 0.92 0.90 0.90 0.90 0.90 0.88 0.86 0.84 0.82 0.82 0.82 0.82 0.82 0.80 0.80 0.78 0.78 0.78 0.78 0.78 0.78 0.78 0.78 0.78 0.78 0.78 0.78 0.78 0.78 0.78 0.80 0.80 0.78 0.80 0.82 0.82 0.82 0.82 0.80 0.80 0.78 0.76 0.74 0.72 0.70 0.66 0.64 0.60 0.56 0.56 0.56 0.54 0.48 0.48 0.42 0.38 0.38 0.37 0.37 0.38
1.21 1.21 1.17 1.17 1.17 1.15 1.15 1.15 1.17 1.17 1.15 1.15 1.13 1.13 1.11 1.09 1.07 1.03 1.00 1.00 1.00 0.98 0.96 0.96 0.94 0.92 0.90 0.90 0.90 0.90 0.88 0.86 0.84 0.82 0.82 0.80 0.80 0.80 0.80 0.80 0.78 0.78 0.78 0.76 0.76 0.76 0.78 0.76 0.76 0.76 0.76 0.76 0.76 0.76 0.74 0.76 0.76 0.76 0.76 0.78 0.78 0.76 0.78 0.78 0.78 0.76 0.76 0.72 0.68 0.66 0.66 0.60 0.58 0.56 0.52 0.50 0.50 0.48 0.44 0.42 0.38 0.35 0.33 0.33 0.35 0.37
1.19 1.17 1.13 1.15 1.15 1.15 1.13 1.15 1.15 1.15 1.15 1.15 1.13 1.11 1.09 1.07 1.03 1.00 0.98 0.96 0.96 0.96 0.94 0.94 0.94 0.92 0.90 0.90 0.90 0.88 0.88 0.84 0.82 0.82 0.80 0.80 0.78 0.80 0.80 0.78 0.78 0.76 0.76 0.76 0.76 0.76 0.76 0.74 0.74 0.74 0.72 0.72 0.74 0.74 0.72 0.72 0.72 0.74 0.72 0.74 0.74 0.74 0.74 0.74 0.72 0.70 0.70 0.70 0.66 0.62 0.60 0.54 0.52 0.52 0.48 0.46 0.46 0.44 0.38 0.37 0.35 0.31 0.31 0.31 0.33 0.35
1.15 1.13 1.13 1.13 1.13 1.13 1.13 1.13 1.15 1.15 1.15 1.13 1.11 1.07 1.05 1.03 1.00 0.98 0.96 0.94 0.94 0.94 0.92 0.92 0.92 0.90 0.88 0.88 0.88 0.88 0.88 0.84 0.82 0.80 0.80 0.78 0.78 0.78 0.78 0.78 0.76 0.76 0.76 0.74 0.74 0.74 0.74 0.72 0.72 0.72 0.70 0.70 0.70 0.70 0.68 0.68 0.70 0.70 0.70 0.70 0.72 0.72 0.70 0.70 0.68 0.64 0.64 0.62 0.60 0.56 0.54 0.50 0.50 0.48 0.48 0.44 0.42 0.40 0.37 0.35 0.33 0.29 0.29 0.29 0.31 0.33
1.13 1.13 1.15 1.13 1.11 1.11 1.13 1.11 1.13 1.13 1.11 1.11 1.07 1.03 1.01 1.00 0.96 0.94 0.92 0.92 0.92 0.90 0.90 0.90 0.90 0.90 0.88 0.88 0.88 0.86 0.86 0.82 0.80 0.80 0.78 0.78 0.78 0.78 0.78 0.78 0.76 0.76 0.74 0.74 0.74 0.72 0.72 0.72 0.70 0.70 0.68 0.68 0.66 0.66 0.64 0.66 0.68 0.68 0.68 0.68 0.68 0.68 0.66 0.64 0.62 0.60 0.58 0.58 0.54 0.50 0.50 0.48 0.46 0.44 0.44 0.40 0.38 0.37 0.35 0.33 0.31 0.27 0.27 0.27 0.29 0.31
1.13 1.13 1.13 1.11 1.11 1.11 1.11 1.11 1.11 1.09 1.09 1.07 1.03 0.98 0.96 0.96 0.92 0.90 0.88 0.88 0.88 0.88 0.86 0.88 0.88 0.88 0.86 0.86 0.86 0.86 0.84 0.82 0.80 0.78 0.78 0.76 0.76 0.76 0.78 0.76 0.76 0.76 0.74 0.74 0.72 0.72 0.72 0.70 0.70 0.68 0.68 0.66 0.64 0.64 0.62 0.62 0.64 0.64 0.64 0.64 0.64 0.64 0.60 0.60 0.56 0.52 0.52 0.52 0.50 0.48 0.46 0.44 0.44 0.42 0.42 0.38 0.37 0.35 0.33 0.31 0.29 0.27 0.27 0.27 0.29 0.31
1.11 1.11 1.11 1.09 1.09 1.09 1.09 1.09 1.09 1.09 1.05 1.03 0.98 0.92 0.92 0.92 0.88 0.86 0.86 0.86 0.86 0.86 0.84 0.84 0.84 0.86 0.84 0.84 0.84 0.84 0.84 0.80 0.78 0.78 0.76 0.76 0.76 0.76 0.76 0.76 0.76 0.74 0.74 0.72 0.72 0.72 0.70 0.70 0.68 0.68 0.66 0.64 0.62 0.62 0.60 0.60 0.60 0.60 0.60 0.60 0.60 0.60 0.56 0.54 0.50 0.48 0.48 0.48 0.46 0.44 0.44 0.42 0.40 0.40 0.38 0.37 0.35 0.33 0.31 0.31 0.29 0.29 0.27 0.27 0.29 0.31
1.09 1.07 1.07 1.07 1.07 1.07 1.07 1.05 1.05 1.07 1.05 1.01 0.96 0.88 0.86 0.86 0.84 0.82 0.82 0.82 0.84 0.84 0.82 0.82 0.82 0.82 0.80 0.82 0.82 0.82 0.80 0.78 0.78 0.76 0.76 0.76 0.74 0.74 0.76 0.74 0.74 0.74 0.74 0.72 0.72 0.72 0.70 0.70 0.68 0.68 0.66 0.64 0.62 0.60 0.60 0.60 0.60 0.58 0.56 0.56 0.56 0.54 0.48 0.48 0.44 0.42 0.42 0.42 0.42 0.40 0.42 0.40 0.38 0.38 0.38 0.35 0.33 0.33 0.31 0.29 0.29 0.29 0.29 0.29 0.31 0.33
1.09 1.07 1.07 1.07 1.07 1.07 1.03 1.01 1.03 1.03 1.03 1.00 0.96 0.90 0.88 0.82 0.78 0.76 0.76 0.78 0.80 0.80 0.80 0.80 0.78 0.76 0.76 0.78 0.78 0.78 0.78 0.76 0.76 0.76 0.76 0.74 0.74 0.74 0.74 0.74 0.74 0.74 0.72 0.72 0.72 0.70 0.70 0.68 0.68 0.66 0.64 0.62 0.60 0.60 0.58 0.58 0.58 0.58 0.56 0.54 0.52 0.48 0.42 0.40 0.38 0.37 0.38 0.38 0.38 0.38 0.38 0.38 0.37 0.37 0.35 0.33 0.33 0.31 0.29 0.29 0.29 0.29 0.31 0.31 0.33 0.35
1.09 1.09 1.07 1.07 1.07 1.07 1.03 1.01 1.00 1.00 0.98 0.96 0.92 0.88 0.86 0.82 0.78 0.76 0.72 0.74 0.76 0.78 0.76 0.76 0.76 0.74 0.72 0.72 0.74 0.76 0.76 0.74 0.74 0.74 0.74 0.74 0.74 0.74 0.74 0.74 0.74 0.72 0.72 0.72 0.72 0.70 0.70 0.68 0.68 0.66 0.66 0.62 0.60 0.58 0.58 0.58 0.58 0.56 0.54 0.50 0.48 0.42 0.37 0.35 0.35 0.33 0.33 0.35 0.35 0.35 0.37 0.37 0.35 0.33 0.33 0.31 0.31 0.29 0.29 0.27 0.29 0.29 0.33 0.33 0.35 0.35
1.07 1.07 1.05 1.05 1.05 1.05 1.03 0.98 0.96 0.94 0.92 0.90 0.84 0.78 0.80 0.80 0.78 0.76 0.72 0.72 0.72 0.72 0.72 0.74 0.74 0.74 0.72 0.72 0.72 0.72 0.74 0.72 0.70 0.72 0.72 0.72 0.72 0.72 0.72 0.72 0.72 0.72 0.72 0.72 0.70 0.70 0.70 0.68 0.68 0.66 0.66 0.62 0.60 0.60 0.58 0.58 0.56 0.56 0.52 0.46 0.42 0.37 0.31 0.31 0.31 0.31 0.29 0.31 0.33 0.33 0.33 0.33 0.33 0.31 0.31 0.29 0.29 0.29 0.29 0.27 0.27 0.29 0.33 0.35 0.37 0.38
1.07 1.05 1.05 1.03 1.01 1.00 0.98 0.92 0.88 0.86 0.86 0.80 0.76 0.72 0.72 0.76 0.76 0.76 0.72 0.72 0.70 0.70 0.70 0.70 0.70 0.72 0.70 0.70 0.70 0.70 0.70 0.68 0.70 0.70 0.70 0.70 0.70 0.70 0.70 0.70 0.70 0.70 0.72 0.70 0.70 0.70 0.70 0.68 0.66 0.66 0.64 0.62 0.60 0.60 0.58 0.58 0.56 0.54 0.48 0.44 0.38 0.35 0.29 0.29 0.27 0.27 0.27 0.29 0.29 0.29 0.31 0.31 0.29 0.29 0.29 0.29 0.27 0.27 0.27 0.27 0.29 0.31 0.35 0.35 0.38 0.42
1.05 1.03 1.00 0.98 0.96 0.94 0.88 0.84 0.82 0.80 0.78 0.76 0.74 0.74 0.72 0.74 0.74 0.74 0.72 0.70 0.70 0.70 0.70 0.68 0.68 0.68 0.68 0.68 0.70 0.70 0.70 0.68 0.68 0.68 0.68 0.68 0.68 0.70 0.70 0.68 0.70 0.70 0.70 0.68 0.68 0.68 0.68 0.68 0.66 0.66 0.64 0.62 0.60 0.58 0.58 0.56 0.54 0.50 0.44 0.38 0.35 0.33 0.29 0.29 0.27 0.27 0.27 0.29 0.29 0.29 0.29 0.29 0.29 0.29 0.29 0.27 0.27 0.27 0.27 0.27 0.29 0.31 0.35 0.37 0.38 0.42
1.03 1.01 0.98 0.94 0.92 0.88 0.82 0.80 0.78 0.76 0.74 0.74 0.74 0.74 0.76 0.76 0.74 0.72 0.70 0.68 0.70 0.70 0.66 0.66 0.66 0.66 0.64 0.66 0.68 0.70 0.70 0.66 0.66 0.66 0.66 0.64 0.66 0.68 0.68 0.68 0.68 0.68 0.68 0.68 0.66 0.68 0.68 0.66 0.66 0.66 0.64 0.62 0.60 0.60 0.58 0.56 0.54 0.50 0.44 0.38 0.35 0.33 0.29 0.29 0.29 0.29 0.29 0.29 0.29 0.27 0.27 0.29 0.29 0.29 0.29 0.29 0.27 0.27 0.27 0.29 0.31 0.33 0.35 0.37 0.38 0.42
1.01 0.98 0.94 0.88 0.86 0.84 0.80 0.80 0.78 0.76 0.74 0.74 0.74 0.74 0.72 0.72 0.72 0.70 0.70 0.68 0.66 0.66 0.64 0.62 0.62 0.60 0.62 0.66 0.68 0.68 0.68 0.66 0.64 0.64 0.62 0.62 0.64 0.66 0.68 0.68 0.66 0.66 0.68 0.66 0.66 0.66 0.66 0.66 0.64 0.64 0.62 0.62 0.60 0.60 0.58 0.56 0.52 0.48 0.40 0.37 0.33 0.31 0.29 0.29 0.29 0.29 0.29 0.29 0.29 0.29 0.29 0.29 0.29 0.31 0.31 0.29 0.29 0.29 0.29 0.31 0.33 0.35 0.37 0.38 0.40 0.44
1.00 0.94 0.88 0.84 0.82 0.80 0.78 0.78 0.76 0.76 0.74 0.74 0.72 0.72 0.72 0.70 0.70 0.70 0.68 0.68 0.66 0.64 0.62 0.60 0.58 0.54 0.52 0.56 0.60 0.64 0.66 0.64 0.62 0.62 0.62 0.62 0.64 0.66 0.68 0.66 0.66 0.66 0.66 0.64 0.64 0.64 0.66 0.64 0.64 0.64 0.62 0.62 0.62 0.62 0.60 0.54 0.48 0.44 0.40 0.35 0.31 0.31 0.29 0.29 0.29 0.29 0.29 0.29 0.29 0.29 0.29 0.31 0.31 0.31 0.31 0.31 0.29 0.29 0.29 0.31 0.33 0.33 0.35 0.37 0.38 0.42
0.98 0.90 0.84 0.80 0.78 0.78 0.76 0.74 0.74 0.74 0.74 0.72 0.72 0.72 0.72 0.72 0.72 0.70 0.68 0.66 0.64 0.62 0.60 0.58 0.56 0.54 0.52 0.52 0.56 0.60 0.64 0.64 0.62 0.62 0.60 0.58 0.60 0.62 0.68 0.66 0.66 0.64 0.64 0.64 0.64 0.64 0.64 0.64 0.62 0.62 0.62 0.64 0.64 0.62 0.62 0.56 0.52 0.46 0.40 0.37 0.33 0.31 0.29 0.29 0.27 0.27 0.29 0.29 0.29 0.31 0.31 0.31 0.33 0.31 0.31 0.31 0.29 0.29 0.29 0.31 0.33 0.35 0.37 0.38 0.40 0.42
0.92 0.86 0.84 0.80 0.78 0.76 0.74 0.72 0.72 0.72 0.72 0.70 0.70 0.70 0.70 0.72 0.70 0.70 0.68 0.66 0.66 0.64 0.62 0.58 0.56 0.54 0.54 0.54 0.58 0.60 0.64 0.64 0.62 0.60 0.58 0.58 0.58 0.60 0.64 0.64 0.64 0.64 0.64 0.64 0.64 0.64 0.64 0.62 0.62 0.62 0.64 0.64 0.64 0.64 0.60 0.54 0.48 0.42 0.38 0.35 0.33 0.31 0.29 0.27 0.27 0.27 0.29 0.29 0.29 0.31 0.33 0.33 0.33 0.33 0.33 0.31 0.31 0.31 0.29 0.31 0.33 0.33 0.35 0.37 0.38 0.40
0.86 0.82 0.80 0.78 0.76 0.74 0.72 0.72 0.72 0.72 0.70 0.72 0.72 0.70 0.68 0.70 0.68 0.66 0.66 0.66 0.64 0.64 0.62 0.60 0.58 0.56 0.58 0.56 0.60 0.64 0.64 0.64 0.60 0.58 0.56 0.56 0.58 0.60 0.62 0.62 0.62 0.62 0.62 0.62 0.62 0.64 0.62 0.62 0.62 0.64 0.64 0.66 0.66 0.64 0.62 0.56 0.46 0.38 0.35 0.33 0.31 0.29 0.27 0.27 0.27 0.27 0.29 0.29 0.31 0.31 0.33 0.33 0.33 0.33 0.33 0.31 0.31 0.31 0.31 0.31 0.33 0.35 0.35 0.37 0.38 0.40
0.82 0.78 0.80 0.78 0.76 0.74 0.70 0.72 0.72 0.74 0.74 0.76 0.74 0.72 0.68 0.68 0.66 0.64 0.64 0.64 0.64 0.62 0.60 0.58 0.58 0.58 0.60 0.58 0.60 0.62 0.64 0.64 0.62 0.60 0.58 0.56 0.58 0.60 0.62 0.62 0.62 0.62 0.62 0.62 0.62 0.62 0.62 0.62 0.64 0.64 0.66 0.66 0.66 0.64 0.60 0.50 0.44 0.38 0.35 0.33 0.31 0.29 0.27 0.27 0.27 0.27 0.29 0.29 0.31 0.31 0.33 0.33 0.35 0.33 0.33 0.33 0.33 0.31 0.31 0.33 0.33 0.35 0.37 0.38 0.38 0.40
0.82 0.78 0.80 0.80 0.78 0.74 0.74 0.74 0.76 0.76 0.76 0.76 0.74 0.70 0.68 0.68 0.66 0.64 0.64 0.62 0.62 0.60 0.58 0.58 0.58 0.60 0.62 0.60 0.62 0.64 0.66 0.64 0.62 0.60 0.58 0.56 0.54 0.56 0.58 0.60 0.60 0.60 0.60 0.60 0.62 0.62 0.62 0.64 0.64 0.64 0.66 0.66 0.64 0.60 0.56 0.44 0.38 0.35 0.33 0.31 0.29 0.29 0.27 0.27 0.27 0.27 0.29 0.31 0.31 0.33 0.35 0.35 0.35 0.33 0.33 0.33 0.33 0.33 0.31 0.33 0.33 0.33 0.35 0.37 0.38 0.38
0.82 0.80 0.80 0.80 0.80 0.78 0.78 0.78 0.78 0.78 0.78 0.76 0.74 0.72 0.70 0.68 0.66 0.66 0.64 0.64 0.62 0.62 0.60 0.60 0.60 0.60 0.62 0.62 0.64 0.64 0.66 0.66 0.64 0.62 0.58 0.54 0.54 0.56 0.58 0.60 0.60 0.60 0.60 0.62 0.62 0.62 0.62 0.62 0.64 0.64 0.64 0.64 0.64 0.60 0.56 0.46 0.38 0.35 0.33 0.31 0.29 0.27 0.27 0.27 0.29 0.29 0.31 0.31 0.33 0.33 0.35 0.35 0.35 0.35 0.33 0.33 0.33 0.33 0.33 0.33 0.33 0.35 0.35 0.37 0.38 0.38
0.84 0.82 0.82 0.82 0.82 0.82 0.82 0.80 0.80 0.78 0.78 0.78 0.76 0.76 0.74 0.70 0.70 0.70 0.68 0.66 0.64 0.62 0.60 0.60 0.60 0.60 0.58 0.60 0.60 0.62 0.62 0.64 0.66 0.64 0.62 0.56 0.56 0.56 0.58 0.60 0.58 0.60 0.60 0.62 0.62 0.62 0.62 0.62 0.62 0.64 0.64 0.62 0.60 0.56 0.50 0.40 0.35 0.33 0.31 0.29 0.29 0.27 0.27 0.29 0.29 0.29 0.31 0.31 0.31 0.33 0.35 0.35 0.35 0.35 0.35 0.35 0.35 0.35 0.35 0.35 0.35 0.35 0.35 0.35 0.35 0.37
0.86 0.84 0.84 0.84 0.82 0.82 0.82 0.82 0.80 0.80 0.80 0.78 0.78 0.76 0.76 0.74 0.72 0.70 0.68 0.66 0.62 0.58 0.58 0.56 0.56 0.56 0.54 0.56 0.58 0.60 0.62 0.64 0.64 0.64 0.60 0.56 0.56 0.56 0.58 0.58 0.58 0.58 0.58 0.60 0.62 0.62 0.62 0.62 0.62 0.62 0.62 0.60 0.56 0.50 0.44 0.37 0.33 0.31 0.31 0.29 0.29 0.27 0.27 0.29 0.31 0.31 0.31 0.33 0.33 0.33 0.35 0.35 0.35 0.35 0.35 0.35 0.35 0.35 0.35 0.35 0.35 0.35 0.35 0.35 0.35 0.37
0.86 0.86 0.86 0.84 0.84 0.84 0.84 0.82 0.82 0.80 0.80 0.78 0.76 0.76 0.74 0.74 0.70 0.66 0.64 0.64 0.60 0.56 0.54 0.52 0.52 0.52 0.52 0.54 0.56 0.58 0.60 0.64 0.64 0.62 0.60 0.56 0.56 0.56 0.58 0.58 0.60 0.60 0.60 0.60 0.60 0.62 0.62 0.60 0.60 0.62 0.60 0.58 0.54 0.50 0.44 0.37 0.33 0.31 0.31 0.29 0.29 0.29 0.29 0.31 0.31 0.31 0.33 0.33 0.33 0.35 0.35 0.35 0.35 0.35 0.35 0.35 0.35 0.37 0.37 0.37 0.37 0.35 0.35 0.35 0.35 0.35
0.88 0.86 0.86 0.86 0.86 0.84 0.84 0.82 0.82 0.80 0.80 0.78 0.76 0.74 0.74 0.70 0.66 0.60 0.58 0.58 0.56 0.56 0.54 0.52 0.50 0.50 0.50 0.52 0.54 0.56 0.58 0.62 0.62 0.62 0.62 0.58 0.56 0.56 0.56 0.58 0.60 0.60 0.60 0.60 0.60 0.60 0.60 0.60 0.60 0.60 0.58 0.52 0.48 0.44 0.38 0.35 0.33 0.31 0.29 0.29 0.29 0.29 0.29 0.31 0.33 0.33 0.33 0.35 0.35 0.35 0.35 0.35 0.35 0.35 0.35 0.35 0.37 0.37 0.37 0.37 0.37 0.37 0.35 0.37 0.37 0.37
0.86 0.86 0.86 0.86 0.84 0.84 0.84 0.82 0.82 0.80 0.80 0.78 0.76 0.74 0.72 0.70 0.62 0.56 0.56 0.56 0.56 0.54 0.52 0.50 0.50 0.50 0.50 0.52 0.54 0.56 0.58 0.60 0.62 0.62 0.64 0.60 0.58 0.56 0.56 0.58 0.60 0.60 0.60 0.58 0.58 0.60 0.60 0.60 0.58 0.58 0.56 0.48 0.42 0.38 0.35 0.33 0.31 0.31 0.31 0.29 0.29 0.31 0.31 0.33 0.33 0.33 0.33 0.35 0.35 0.37 0.37 0.37 0.37 0.37 0.37 0.37 0.37 0.37 0.37 0.37 0.37 0.37 0.37 0.35 0.35 0.37
0.84 0.84 0.84 0.84 0.84 0.82 0.82 0.82 0.80 0.80 0.80 0.78 0.76 0.74 0.74 0.70 0.64 0.58 0.58 0.58 0.56 0.54 0.52 0.52 0.50 0.50 0.52 0.54 0.56 0.56 0.58 0.60 0.62 0.62 0.64 0.58 0.56 0.56 0.56 0.58 0.58 0.60 0.58 0.58 0.58 0.58 0.58 0.58 0.58 0.56 0.54 0.44 0.40 0.37 0.33 0.31 0.31 0.31 0.31 0.31 0.31 0.31 0.31 0.33 0.33 0.33 0.35 0.35 0.37 0.37 0.37 0.37 0.37 0.37 0.37 0.37 0.37 0.37 0.37 0.37 0.37 0.37 0.37 0.35 0.35 0.37
0.82 0.82 0.82 0.82 0.82 0.82 0.80 0.80 0.80 0.80 0.78 0.76 0.76 0.74 0.72 0.70 0.66 0.64 0.62 0.60 0.58 0.56 0.54 0.52 0.52 0.52 0.54 0.54 0.54 0.54 0.54 0.58 0.60 0.62 0.64 0.58 0.56 0.56 0.58 0.58 0.58 0.58 0.58 0.58 0.56 0.56 0.56 0.56 0.54 0.52 0.48 0.38 0.35 0.31 0.31 0.31 0.31 0.31 0.31 0.31 0.31 0.33 0.33 0.33 0.35 0.35 0.35 0.37 0.37 0.37 0.37 0.37 0.37 0.37 0.37 0.37 0.37 0.37 0.37 0.37 0.37 0.37 0.35 0.35 0.35 0.35
0.78 0.78 0.80 0.80 0.80 0.80 0.80 0.80 0.78 0.78 0.76 0.74 0.74 0.72 0.72 0.68 0.66 0.64 0.64 0.62 0.60 0.58 0.56 0.54 0.54 0.54 0.56 0.54 0.52 0.50 0.52 0.56 0.60 0.64 0.64 0.60 0.58 0.56 0.56 0.58 0.58 0.58 0.60 0.58 0.56 0.54 0.54 0.52 0.50 0.48 0.44 0.37 0.31 0.29 0.29 0.29 0.29 0.29 0.31 0.31 0.31 0.33 0.33 0.35 0.35 0.35 0.35 0.37 0.37 0.37 0.37 0.37 0.37 0.37 0.37 0.37 0.37 0.37 0.37 0.37 0.37 0.37 0.35 0.35 0.35 0.35
0.78 0.78 0.78 0.78 0.78 0.78 0.78 0.78 0.78 0.76 0.74 0.74 0.72 0.72 0.70 0.68 0.66 0.66 0.64 0.62 0.62 0.60 0.58 0.56 0.56 0.56 0.58 0.56 0.52 0.52 0.56 0.60 0.62 0.64 0.64 0.60 0.58 0.58 0.58 0.58 0.58 0.58 0.60 0.60 0.58 0.54 0.52 0.50 0.48 0.44 0.42 0.35 0.29 0.29 0.27 0.29 0.29 0.29 0.29 0.31 0.31 0.31 0.33 0.35 0.35 0.35 0.37 0.37 0.37 0.37 0.37 0.37 0.38 0.38 0.38 0.38 0.37 0.37 0.37 0.37 0.37 0.37 0.35 0.35 0.35 0.35
0.76 0.76 0.76 0.78 0.76 0.76 0.76 0.76 0.76 0.74 0.72 0.70 0.70 0.70 0.70 0.68 0.66 0.66 0.66 0.64 0.64 0.64 0.62 0.60 0.58 0.58 0.58 0.58 0.56 0.56 0.58 0.60 0.64 0.64 0.66 0.62 0.60 0.58 0.58 0.58 0.58 0.58 0.60 0.58 0.56 0.54 0.52 0.46 0.42 0.38 0.37 0.31 0.29 0.27 0.27 0.29 0.29 0.31 0.31 0.31 0.31 0.31 0.33 0.35 0.35 0.35 0.37 0.37 0.37 0.37 0.37 0.38 0.38 0.38 0.38 0.38 0.38 0.38 0.38 0.38 0.38 0.38 0.37 0.37 0.37 0.37
0.76 0.76 0.76 0.76 0.74 0.74 0.74 0.74 0.72 0.72 0.70 0.68 0.68 0.68 0.68 0.66 0.66 0.66 0.66 0.66 0.66 0.66 0.64 0.62 0.60 0.60 0.60 0.58 0.58 0.58 0.58 0.60 0.64 0.66 0.66 0.64 0.62 0.60 0.58 0.60 0.58 0.58 0.58 0.58 0.56 0.54 0.52 0.44 0.38 0.37 0.33 0.31 0.29 0.27 0.27 0.29 0.29 0.31 0.31 0.31 0.31 0.31 0.33 0.35 0.35 0.35 0.37 0.37 0.37 0.37 0.38 0.38 0.38 0.38 0.38 0.38 0.38 0.38 0.38 0.38 0.38 0.38 0.38 0.37 0.37 0.37
0.74 0.74 0.74 0.74 0.72 0.70 0.70 0.70 0.70 0.70 0.68 0.68 0.66 0.66 0.66 0.66 0.64 0.66 0.66 0.66 0.66 0.66 0.66 0.66 0.64 0.62 0.62 0.60 0.58 0.58 0.60 0.62 0.64 0.66 0.66 0.64 0.62 0.60 0.60 0.60 0.60 0.58 0.58 0.56 0.54 0.50 0.48 0.42 0.37 0.33 0.29 0.29 0.27 0.27 0.27 0.27 0.29 0.31 0.31 0.33 0.33 0.33 0.33 0.35 0.35 0.35 0.37 0.35 0.37 0.37 0.37 0.37 0.38 0.38 0.38 0.38 0.38 0.38 0.38 0.38 0.38 0.40 0.40 0.38 0.38 0.38
0.72 0.72 0.72 0.72 0.70 0.68 0.68 0.68 0.68 0.68 0.66 0.66 0.66 0.66 0.66 0.64 0.64 0.64 0.64 0.66 0.66 0.68 0.68 0.68 0.68 0.66 0.66 0.64 0.62 0.62 0.62 0.64 0.66 0.66 0.66 0.64 0.62 0.62 0.60 0.60 0.60 0.58 0.56 0.52 0.48 0.46 0.40 0.38 0.33 0.29 0.25 0.25 0.25 0.23 0.25 0.27 0.29 0.31 0.31 0.33 0.33 0.33 0.35 0.35 0.35 0.35 0.35 0.35 0.35 0.35 0.35 0.37 0.37 0.37 0.38 0.38 0.38 0.38 0.40 0.40 0.40 0.40 0.40 0.40 0.40 0.40
0.70 0.70 0.70 0.70 0.68 0.68 0.66 0.66 0.66 0.66 0.64 0.64 0.64 0.64 0.64 0.64 0.64 0.64 0.64 0.66 0.66 0.68 0.68 0.68 0.68 0.68 0.68 0.68 0.66 0.66 0.66 0.66 0.66 0.66 0.66 0.66 0.66 0.64 0.62 0.62 0.60 0.60 0.58 0.52 0.48 0.44 0.40 0.37 0.31 0.27 0.25 0.23 0.23 0.23 0.23 0.27 0.29 0.29 0.31 0.33 0.33 0.33 0.35 0.35 0.37 0.35 0.35 0.35 0.35 0.35 0.35 0.35 0.35 0.37 0.37 0.38 0.38 0.38 0.40 0.40 0.40 0.40 0.42 0.42 0.42 0.42
0.68 0.68 0.68 0.68 0.68 0.66 0.66 0.66 0.66 0.64 0.64 0.64 0.64 0.62 0.62 0.62 0.62 0.64 0.64 0.66 0.66 0.66 0.68 0.68 0.68 0.68 0.68 0.68 0.68 0.66 0.68 0.66 0.66 0.68 0.68 0.66 0.66 0.64 0.62 0.60 0.58 0.58 0.56 0.48 0.44 0.40 0.37 0.33 0.29 0.25 0.23 0.23 0.23 0.23 0.25 0.27 0.27 0.29 0.31 0.33 0.33 0.33 0.35 0.35 0.37 0.37 0.35 0.35 0.35 0.35 0.35 0.35 0.35 0.35 0.37 0.37 0.37 0.38 0.38 0.38 0.40 0.40 0.42 0.42 0.42 0.42
0.68 0.68 0.66 0.68 0.66 0.66 0.66 0.64 0.64 0.64 0.64 0.64 0.62 0.62 0.62 0.62 0.62 0.64 0.64 0.66 0.66 0.66 0.66 0.66 0.66 0.68 0.66 0.68 0.68 0.68 0.66 0.66 0.68 0.68 0.68 0.66 0.66 0.64 0.62 0.56 0.54 0.52 0.50 0.44 0.38 0.35 0.31 0.29 0.25 0.23 0.23 0.23 0.21 0.23 0.25 0.25 0.27 0.27 0.29 0.31 0.31 0.33 0.33 0.35 0.35 0.37 0.37 0.37 0.35 0.35 0.35 0.35 0.37 0.35 0.35 0.37 0.37 0.37 0.37 0.38 0.40 0.40 0.40 0.42 0.42 0.42
0.68 0.66 0.66 0.66 0.68 0.66 0.66 0.66 0.66 0.64 0.64 0.64 0.64 0.62 0.62 0.60 0.60 0.62 0.62 0.64 0.64 0.64 0.66 0.66 0.66 0.66 0.66 0.66 0.66 0.66 0.66 0.66 0.66 0.66 0.66 0.64 0.62 0.62 0.60 0.54 0.50 0.48 0.46 0.40 0.37 0.35 0.33 0.29 0.27 0.25 0.23 0.23 0.21 0.23 0.25 0.25 0.27 0.27 0.29 0.29 0.29 0.31 0.33 0.35 0.35 0.37 0.37 0.37 0.37 0.35 0.35 0.37 0.37 0.37 0.35 0.37 0.37 0.37 0.37 0.38 0.38 0.38 0.40 0.40 0.40 0.40
0.66 0.66 0.66 0.66 0.68 0.66 0.66 0.66 0.66 0.66 0.64 0.64 0.62 0.62 0.60 0.60 0.58 0.60 0.60 0.62 0.62 0.62 0.64 0.64 0.66 0.66 0.64 0.64 0.64 0.64 0.64 0.64 0.64 0.64 0.64 0.60 0.58 0.56 0.56 0.48 0.44 0.42 0.40 0.37 0.33 0.33 0.31 0.29 0.27 0.25 0.23 0.23 0.23 0.25 0.25 0.27 0.27 0.29 0.29 0.27 0.29 0.31 0.33 0.35 0.35 0.37 0.37 0.37 0.37 0.37 0.37 0.37 0.37 0.37 0.37 0.37 0.37 0.37 0.37 0.38 0.38 0.38 0.40 0.40 0.40 0.38
0.66 0.66 0.66 0.66 0.66 0.66 0.66 0.66 0.66 0.64 0.62 0.62 0.60 0.60 0.58 0.58 0.58 0.58 0.58 0.60 0.60 0.60 0.62 0.62 0.62 0.62 0.60 0.62 0.64 0.64 0.62 0.62 0.62 0.60 0.60 0.54 0.52 0.50 0.48 0.42 0.40 0.38 0.37 0.35 0.33 0.31 0.29 0.27 0.25 0.25 0.25 0.23 0.23 0.25 0.25 0.25 0.27 0.29 0.29 0.29 0.29 0.31 0.33 0.35 0.35 0.37 0.37 0.37 0.37 0.37 0.37 0.37 0.37 0.37 0.37 0.37 0.37 0.38 0.38 0.38 0.40 0.40 0.38 0.38 0.40 0.40
0.68 0.68 0.68 0.68 0.66 0.66 0.66 0.66 0.64 0.64 0.60 0.60 0.58 0.58 0.58 0.56 0.56 0.56 0.56 0.58 0.58 0.58 0.58 0.58 0.60 0.60 0.58 0.58 0.58 0.58 0.56 0.58 0.58 0.58 0.56 0.50 0.48 0.46 0.44 0.38 0.37 0.37 0.35 0.35 0.31 0.31 0.29 0.29 0.27 0.27 0.25 0.25 0.25 0.25 0.25 0.25 0.27 0.29 0.29 0.29 0.31 0.31 0.33 0.35 0.35 0.37 0.37 0.37 0.37 0.37 0.37 0.37 0.37 0.37 0.37 0.38 0.38 0.38 0.38 0.38 0.40 0.40 0.40 0.38 0.38 0.38
0.68 0.68 0.68 0.68 0.66 0.66 0.66 0.64 0.64 0.62 0.60 0.60 0.58 0.56 0.56 0.56 0.54 0.54 0.54 0.54 0.54 0.54 0.54 0.54 0.56 0.56 0.54 0.52 0.54 0.54 0.52 0.52 0.52 0.52 0.50 0.46 0.42 0.40 0.38 0.35 0.33 0.33 0.33 0.33 0.31 0.29 0.29 0.29 0.27 0.27 0.25 0.25 0.25 0.25 0.25 0.27 0.27 0.29 0.31 0.31 0.33 0.33 0.33 0.33 0.35 0.37 0.37 0.37 0.37 0.37 0.38 0.38 0.38 0.38 0.38 0.38 0.38 0.38 0.38 0.38 0.38 0.40 0.40 0.38 0.38 0.38
0.68 0.68 0.68 0.66 0.66 0.64 0.64 0.62 0.62 0.60 0.58 0.58 0.56 0.56 0.54 0.54 0.54 0.54 0.52 0.52 0.52 0.50 0.50 0.52 0.52 0.52 0.48 0.48 0.50 0.48 0.46 0.46 0.46 0.46 0.46 0.40 0.37 0.37 0.35 0.33 0.31 0.33 0.33 0.31 0.31 0.29 0.27 0.27 0.27 0.27 0.27 0.27 0.27 0.25 0.25 0.25 0.27 0.29 0.31 0.31 0.33 0.35 0.35 0.35 0.35 0.37 0.37 0.37 0.37 0.37 0.38 0.38 0.38 0.37 0.37 0.37 0.38 0.38 0.38 0.38 0.38 0.38 0.38 0.38 0.38 0.38
0.68 0.68 0.66 0.66 0.64 0.64 0.62 0.62 0.60 0.58 0.56 0.56 0.54 0.54 0.52 0.52 0.52 0.52 0.52 0.50 0.50 0.48 0.48 0.48 0.48 0.46 0.44 0.44 0.46 0.44 0.40 0.40 0.40 0.40 0.40 0.37 0.35 0.33 0.33 0.31 0.31 0.31 0.31 0.31 0.31 0.31 0.29 0.27 0.27 0.25 0.27 0.27 0.25 0.25 0.27 0.27 0.29 0.31 0.31 0.33 0.35 0.35 0.37 0.37 0.37 0.37 0.37 0.37 0.37 0.37 0.37 0.38 0.37 0.37 0.37 0.37 0.37 0.37 0.38 0.38 0.38 0.38 0.38 0.38 0.38 0.38
0.68 0.66 0.66 0.64 0.64 0.62 0.62 0.62 0.58 0.56 0.54 0.54 0.52 0.52 0.50 0.50 0.48 0.50 0.50 0.50 0.48 0.48 0.46 0.46 0.44 0.42 0.42 0.42 0.42 0.40 0.37 0.37 0.35 0.35 0.35 0.33 0.31 0.31 0.31 0.31 0.31 0.31 0.31 0.31 0.29 0.29 0.29 0.27 0.27 0.27 0.25 0.25 0.25 0.27 0.27 0.29 0.31 0.31 0.33 0.33 0.35 0.35 0.35 0.37 0.37 0.37 0.37 0.37 0.37 0.37 0.37 0.37 0.37 0.37 0.37 0.37 0.37 0.37 0.38 0.38 0.38 0.38 0.38 0.38 0.38 0.38
0.68 0.66 0.66 0.66 0.64 0.62 0.62 0.60 0.58 0.56 0.54 0.52 0.52 0.50 0.48 0.48 0.48 0.48 0.48 0.48 0.48 0.46 0.44 0.44 0.42 0.40 0.40 0.40 0.38 0.37 0.35 0.33 0.33 0.31 0.31 0.29 0.29 0.29 0.29 0.29 0.29 0.29 0.29 0.29 0.29 0.29 0.29 0.29 0.29 0.27 0.27 0.27 0.25 0.27 0.27 0.29 0.31 0.33 0.33 0.35 0.35 0.35 0.35 0.35 0.37 0.37 0.37 0.35 0.37 0.37 0.37 0.37 0.37 0.37 0.37 0.37 0.37 0.37 0.37 0.37 0.38 0.38 0.38 0.38 0.38 0.38
0.68 0.66 0.66 0.64 0.64 0.62 0.60 0.60 0.58 0.54 0.52 0.50 0.50 0.48 0.46 0.46 0.46 0.46 0.46 0.46 0.46 0.44 0.42 0.42 0.40 0.38 0.37 0.37 0.37 0.35 0.33 0.31 0.31 0.31 0.29 0.29 0.29 0.29 0.29 0.29 0.29 0.29 0.29 0.29 0.29 0.29 0.29 0.29 0.29 0.29 0.29 0.29 0.29 0.29 0.29 0.31 0.33 0.35 0.35 0.37 0.35 0.35 0.35 0.35 0.35 0.35 0.35 0.35 0.35 0.37 0.37 0.37 0.37 0.37 0.37 0.37 0.37 0.37 0.37 0.37 0.37 0.38 0.38 0.38 0.38 0.37
0.68 0.66 0.66 0.64 0.62 0.60 0.60 0.58 0.56 0.52 0.52 0.48 0.48 0.46 0.44 0.44 0.44 0.44 0.44 0.44 0.44 0.42 0.42 0.40 0.38 0.37 0.37 0.35 0.35 0.35 0.31 0.31 0.29 0.29 0.29 0.29 0.29 0.29 0.29 0.29 0.27 0.27 0.27 0.27 0.27 0.27 0.27 0.29 0.29 0.31 0.31 0.31 0.31 0.33 0.33 0.33 0.35 0.37 0.37 0.37 0.37 0.37 0.35 0.35 0.35 0.35 0.35 0.35 0.37 0.37 0.37 0.38 0.38 0.38 0.38 0.37 0.37 0.37 0.37 0.37 0.37 0.37 0.38 0.37 0.37 0.37
0.66 0.66 0.64 0.64 0.62 0.60 0.60 0.58 0.54 0.52 0.50 0.48 0.46 0.44 0.44 0.42 0.42 0.42 0.44 0.42 0.42 0.42 0.40 0.40 0.38 0.37 0.35 0.33 0.33 0.33 0.31 0.29 0.29 0.29 0.29 0.29 0.29 0.29 0.29 0.27 0.27 0.27 0.27 0.25 0.25 0.25 0.25 0.27 0.27 0.27 0.29 0.33 0.35 0.37 0.35 0.35 0.35 0.37 0.37 0.37 0.37 0.35 0.35 0.35 0.35 0.35 0.35 0.35 0.37 0.37 0.38 0.38 0.40 0.40 0.40 0.38 0.38 0.37 0.37 0.35 0.35 0.35 0.37 0.37 0.35 0.35
Wind_Speed
29 29 29 29 28 28 28 27 27 27 27 26 24 23 23 22 22 22 22 22 22 21 20 20 19 19 19 19 19 19 19 19 19 19 19 19 19 19 19 19 19 18 18 19 19 18 18 18 17 17 17 16 16 16 16 16 16 16 16 16 16 16 16 15 15 15 14 14 13 12 12 11 11 10 10 10 9 9 8 7 7 6 6 6 6 6
29 28 28 28 27 27 27 27 27 27 26 25 23 23 22 22 22 22 22 22 21 21 20 19 19 19 19 19 19 19 19 19 19 19 19 19 19 19 19 19 18 18 18 18 18 18 18 18 17 17 17 17 17 16 16 16 16 15 15 15 15 15 15 14 14 13 13 12 12 11 11 11 10 10 10 9 9 8 8 7 7 7 7 6 7 7
28 27 27 26 26 26 27 27 27 26 25 24 23 23 22 22 22 22 22 22 21 21 20 19 19 19 19 19 19 19 19 19 19 19 19 19 19 19 19 18 18 18 18 18 18 18 18 18 17 17 17 17 17 16 16 16 16 15 15 15 14 14 14 13 13 12 12 12 11 11 10 10 9 9 9 9 9 8 8 7 7 7 7 7 7 7
28 26 26 26 26 26 27 26 26 25 24 23 23 22 22 22 22 22 22 21 21 20 20 19 19 19 19 19 19 19 19 19 19 19 19 19 19 19 19 18 18 18 18 18 18 18 18 18 17 17 17 17 17 16 16 16 15 15 15 14 14 14 13 13 12 12 11 11 10 10 9 9 9 9 9 9 8 8 8 7 7 7 7 7 7 7
28 26 26 25 25 26 26 26 25 24 23 23 23 22 22 22 22 22 22 21 20 20 20 19 19 19 20 19 19 19 19 19 19 19 19 19 19 19 19 18 18 18 18 18 18 18 18 18 17 17 17 17 16 16 16 15 15 15 14 14 14 13 13 12 12 12 11 11 10 10 9 9 9 9 9 9 8 8 8 7 7 7 7 7 7 7
28 27 26 25 26 26 26 26 25 24 23 23 23 23 22 22 22 22 21 21 20 20 20 20 20 20 20 20 20 19 19 19 19 20 19 19 19 19 19 18 18 18 18 18 18 18 18 17 17 17 17 17 16 16 16 15 15 15 14 14 14 13 13 12 12 12 11 11 10 10 10 10 9 9 9 9 8 8 8 7 7 7 7 7 7 7
28 27 26 26 26 26 26 26 25 24 24 23 23 23 23 23 22 22 21 21 21 20 20 20 20 20 20 20 20 20 19 19 19 19 19 19 19 19 19 19 18 18 18 18 18 18 18 17 17 17 17 16 16 16 15 15 15 15 14 14 14 14 13 13 12 12 11 11 11 10 10 10 10 9 9 9 8 8 8 8 7 7 7 7 7 7
27 27 26 26 26 26 26 25 25 24 24 23 23 23 23 23 22 22 22 21 21 21 21 20 20 20 20 20 20 20 20 19 19 19 19 19 19 19 19 19 19 18 18 18 18 18 18 17 17 17 17 16 16 15 15 15 14 14 14 14 14 14 13 13 13 12 12 11 11 11 10 10 10 10 9 9 9 8 8 8 7 7 7 7 7 7
27 27 27 27 26 26 25 25 25 24 24 24 23 23 23 23 23 22 22 22 22 21 21 21 21 20 20 20 20 20 20 20 20 20 20 20 19 19 19 19 19 18 18 18 18 18 18 17 17 17 16 16 15 15 15 14 14 14 14 14 14 14 14 13 13 12 12 12 11 11 11 11 10 10 10 9 9 9 8 8 8 7 7 7 7 7
27 27 27 27 26 26 25 25 24 24 24 24 24 24 23 23 23 22 22 22 22 22 22 22 21 21 21 21 20 20 20 20 20 20 20 20 20 19 19 19 19 18 18 18 18 18 18 17 17 17 16 16 15 15 15 14 14 14 14 14 14 14 14 13 13 12 12 12 11 11 11 11 10 10 10 10 10 9 9 8 8 8 7 7 7 7
27 27 26 26 26 26 25 25 24 24 24 24 24 24 24 23 23 22 22 22 22 22 22 22 22 21 21 21 21 20 20 20 20 20 20 20 20 19 19 19 19 18 18 18 18 18 18 17 17 17 16 16 15 15 14 14 14 14 14 14 14 13 13 13 13 12 12 12 11 11 11 11 10 10 10 10 10 10 9 9 8 8 8 7 7 7
27 27 26 27 26 26 25 24 24 24 24 24 24 24 24 24 24 23 23 23 23 23 23 22 22 22 22 21 21 21 21 21 21 20 20 20 20 19 19 19 19 18 18 18 18 18 18 17 17 17 16 16 15 15 14 14 14 14 14 14 13 13 13 13 12 12 12 11 11 11 11 11 10 10 10 10 10 10 9 9 9 8 8 7 7 7
27 27 26 26 26 25 25 24 24 24 25 25 25 25 24 24 24 24 24 24 24 23 23 23 23 22 22 22 21 21 21 21 21 21 21 20 20 20 19 19 18 18 18 18 18 18 18 17 17 17 16 16 15 15 15 14 14 14 14 13 13 13 12 12 12 11 11 11 11 11 11 10 10 10 10 10 10 10 10 9 9 8 8 7 7 7
27 26 26 26 26 25 25 24 25 25 25 26 26 25 25 25 24 24 24 24 24 24 23 23 23 22 22 22 22 22 22 21 21 21 21 21 21 20 19 19 19 19 19 18 18 18 18 17 17 17 16 16 15 15 15 14 14 14 14 13 13 13 12 12 11 11 11 11 11 11 10 10 10 10 10 11 10 10 10 9 9 9 8 8 7 6
26 25 26 25 25 25 25 25 25 26 26 26 26 25 25 25 25 25 24 24 24 24 23 23 23 23 23 22 22 22 22 22 22 22 21 21 21 20 20 20 20 19 19 19 19 18 18 17 17 17 16 16 15 15 15 15 14 14 14 13 13 12 12 11 11 11 11 10 10 10 10 10 10 10 11 11 10 10 10 10 9 9 8 8 7 7
25 25 25 25 25 25 25 26 26 26 26 26 26 26 25 25 26 25 25 24 24 24 23 23 23 23 23 23 23 23 22 22 22 22 22 22 21 21 20 20 20 20 20 19 19 18 18 18 17 17 16 16 16 15 15 15 14 14 14 13 13 12 12 12 11 11 10 10 10 10 10 10 10 11 11 11 10 10 10 10 10 9 9 8 8 7
26 25 25 25 25 25 26 26 27 27 27 27 27 27 26 26 26 26 25 25 24 24 24 24 24 23 23 23 23 23 23 23 23 22 22 22 22 21 21 21 21 20 20 20 19 19 18 18 17 17 17 16 16 15 15 15 14 14 14 13 13 12 12 12 11 11 10 10 10 10 10 11 11 11 11 11 11 10 10 10 10 9 9 9 8 8
27 27 26 26 26 26 27 27 27 27 27 27 27 27 27 27 26 26 25 25 25 24 25 25 25 24 24 23 24 24 24 23 23 22 22 22 22 22 21 21 21 21 20 20 20 19 18 18 18 17 17 17 16 16 15 15 14 14 14 13 13 12 12 12 11 11 11 10 10 10 11 11 11 11 11 11 11 11 10 10 10 10 9 9 9 8
29 28 28 28 28 28 28 28 28 28 28 27 27 27 27 26 26 26 25 25 25 25 25 25 25 25 24 24 24 24 24 23 23 23 22 22 22 22 22 21 21 21 21 20 20 19 19 18 18 18 17 17 16 16 15 15 14 14 14 13 13 12 12 12 12 11 11 11 11 11 11 12 12 12 11 11 11 11 11 11 10 10 10 9 9 9
30 29 29 29 28 28 28 28 28 28 28 28 27 27 26 26 26 26 26 25 25 25 25 25 25 25 25 24 24 24 24 24 23 23 23 22 22 22 22 21 21 21 21 20 20 20 19 19 18 18 18 17 16 16 15 15 15 14 14 13 13 12 12 12 12 12 11 11 11 11 12 12 12 12 11 11 11 11 11 11 11 10 10 10 9 9
30 30 29 29 28 28 28 28 28 28 28 27 27 26 26 26 26 26 26 25 25 26 26 26 26 25 25 24 24 24 25 24 23 23 23 22 23 23 22 22 21 21 21 20 20 20 19 19 18 18 18 17 17 16 16 15 15 14 14 13 13 13 12 12 12 12 12 12 12 12 12 13 12 12 12 11 11 11 11 11 11 11 10 10 10 10
29 29 29 29 28 28 28 28 28 28 28 27 27 26 26 26 26 26 26 25 25 26 26 26 25 25 25 24 24 25 25 25 24 23 23 22 23 23 22 22 21 21 21 21 20 20 20 19 19 18 18 17 17 16 16 15 15 14 14 14 13 13 12 12 12 12 12 12 13 13 13 13 13 12 12 12 12 11 12 11 11 11 11 11 10 10
29 29 28 28 28 28 27 27 27 27 28 27 27 27 26 26 26 26 26 26 26 26 25 25 25 25 24 24 24 24 25 25 24 24 23 23 23 23 22 22 21 21 21 21 20 20 20 19 19 18 18 17 17 16 16 15 15 14 14 14 13 13 13 13 13 13 13 13 13 13 14 13 13 13 12 12 12 12 12 12 12 11 11 11 11 10
29 28 28 28 28 27 27 27 27 27 28 28 27 27 27 26 26 26 25 25 25 25 25 25 25 24 24 24 24 24 25 25 24 24 23 23 23 23 23 22 22 21 21 21 20 20 20 19 19 18 18 18 17 17 16 15 15 15 14 14 13 13 13 13 13 13 13 13 14 14 14 14 13 13 13 12 12 12 12 12 12 11 11 11 11 11
28 28 27 27 27 27 27 27 27 28 28 27 27 27 26 26 25 25 25 25 25 24 24 24 24 24 24 23 24 24 24 24 24 24 23 23 22 23 23 22 22 21 21 21 20 20 20 19 19 19 18 18 17 17 16 16 15 15 14 14 14 13 13 13 13 13 13 14 14 14 14 14 14 13 13 13 13 12 12 12 12 12 11 11 11 11
27 27 27 27 27 27 27 28 28 28 28 27 27 26 26 25 25 25 24 24 24 24 24 23 23 23 23 23 23 24 24 24 24 24 23 23 22 22 23 22 22 21 21 21 20 20 19 19 19 19 18 18 17 17 16 16 15 15 15 14 14 14 14 14 13 14 14 14 15 15 15 15 14 14 14 13 13 13 13 12 12 12 12 11 11 11
27 27 27 27 27 27 28 28 28 28 27 27 27 26 26 25 25 24 24 24 24 24 23 23 23 23 23 23 23 24 24 24 24 24 23 23 22 22 22 22 22 21 21 20 20 20 19 19 19 18 18 18 17 17 16 16 16 15 15 15 14 14 14 14 14 14 14 15 15 15 15 15 15 14 14 14 14 13 13 13 12 12 12 12 11 11
27 27 27 27 27 27 28 28 28 28 27 27 27 26 26 25 25 24 24 24 24 24 24 24 23 23 23 23 24 24 24 24 24 24 24 23 22 22 22 22 21 21 20 20 20 20 19 19 19 18 18 18 18 17 17 16 16 16 15 15 15 15 15 14 14 14 15 15 16 16 16 15 15 15 14 14 14 14 13 13 13 12 12 12 11 11
28 28 28 28 28 28 28 28 28 27 27 27 26 26 26 26 25 25 25 25 24 24 24 24 23 23 23 23 23 24 24 24 24 24 24 23 22 22 22 21 21 21 20 19 19 19 19 19 18 18 18 18 18 17 17 17 16 16 16 15 15 15 15 15 15 15 15 16 16 16 16 16 15 15 15 15 14 14 14 13 13 13 12 12 12 11
29 29 28 28 28 28 28 27 27 27 27 26 26 26 26 26 26 25 25 25 24 24 24 24 23 23 23 23 23 23 24 24 24 24 24 23 22 22 21 21 21 21 20 19 19 19 19 19 18 18 18 18 17 17 17 17 17 16 16 16 16 16 16 15 15 15 16 16 16 17 16 16 16 15 15 15 15 14 14 14 13 13 13 12 12 12
30 29 29 29 28 28 27 27 27 26 26 26 26 26 26 26 25 25 25 25 25 24 24 24 23 23 23 22 23 23 24 24 24 24 24 23 22 22 21 21 21 21 20 19 19 18 18 19 18 18 17 17 17 17 17 17 17 17 16 16 16 16 16 16 16 16 16 17 17 17 17 16 16 15 15 15 15 15 14 14 14 13 13 12 12 12
30 30 29 29 28 28 27 27 26 26 26 26 26 26 26 26 25 25 25 25 25 24 24 24 23 23 23 23 23 23 23 24 24 24 24 23 22 22 21 21 21 21 20 20 19 18 18 18 18 18 17 17 17 17 17 17 17 17 17 17 16 16 16 16 16 16 17 17 17 17 17 16 16 16 15 15 15 15 14 14 14 13 13 13 12 12
30 29 29 28 28 27 27 26 26 25 25 25 25 25 25 25 25 25 25 25 25 24 24 24 24 23 23 23 23 23 23 23 24 24 24 23 22 22 21 21 21 21 20 20 19 18 18 17 18 18 17 17 17 17 17 17 17 17 17 17 17 17 17 17 17 17 17 17 18 17 17 17 16 16 15 15 15 15 14 14 14 13 13 13 12 12
30 29 28 28 27 27 26 26 25 25 25 25 25 25 25 24 24 25 24 24 24 24 24 24 24 23 23 23 23 22 22 23 24 24 24 23 22 22 21 21 21 20 20 20 19 18 18 17 17 17 17 17 18 17 17 17 17 17 17 17 17 17 17 17 17 17 18 18 18 18 17 17 16 16 16 15 15 15 14 14 14 13 13 13 13 12
29 29 28 27 27 26 26 26 25 25 25 25 25 24 24 24 24 24 24 24 24 23 23 23 23 23 23 23 22 22 22 23 23 24 24 23 22 22 21 21 21 21 20 20 19 18 17 17 17 17 17 17 18 18 18 18 17 17 17 18 17 17 17 17 17 18 18 18 18 18 17 17 16 16 16 15 15 15 15 14 14 14 13 13 13 12
28 28 28 27 27 26 26 25 25 25 25 24 24 24 24 24 24 23 23 23 23 22 22 23 23 23 23 23 23 23 23 22 23 23 24 23 23 22 21 21 21 21 20 20 19 18 18 17 18 18 17 17 18 18 18 18 18 17 17 18 18 18 18 18 18 18 18 18 18 18 17 17 16 16 16 15 15 15 15 15 14 14 14 13 13 13
28 28 27 27 26 26 25 25 25 25 24 24 24 24 23 23 23 23 23 22 22 22 22 22 22 22 22 22 23 23 22 22 22 23 23 23 23 22 21 21 21 21 20 20 19 19 18 18 18 18 18 17 17 18 18 18 18 18 18 18 18 18 18 18 19 19 19 19 18 18 17 17 16 16 16 16 15 15 15 15 15 14 14 14 13 13
28 27 27 26 26 26 25 25 25 24 24 24 24 23 23 23 23 22 22 21 21 21 21 21 21 21 21 21 22 22 22 22 22 22 23 23 22 22 21 21 21 21 20 20 20 19 18 18 18 18 18 18 18 18 18 18 18 18 18 18 18 18 18 19 19 19 19 19 19 18 18 17 17 16 16 16 16 15 15 15 15 15 14 14 14 14
27 27 26 26 26 25 25 25 24 24 24 24 23 23 22 22 22 22 21 21 21 20 20 21 21 21 21 21 21 21 21 22 22 22 22 22 22 22 21 21 20 20 20 20 20 19 19 19 18 18 18 18 18 18 18 19 19 18 18 18 18 18 19 19 20 20 20 19 19 18 17 17 17 16 16 16 16 15 15 15 15 15 14 14 14 14
27 27 26 26 25 25 25 24 24 24 24 23 23 22 22 22 22 21 21 21 20 20 20 20 20 20 20 20 20 21 21 21 21 21 21 22 22 22 21 21 20 20 20 20 20 20 20 19 19 19 19 18 18 18 18 18 19 19 18 18 18 19 19 20 20 20 20 19 19 18 17 17 17 16 16 16 16 15 15 15 15 15 15 14 14 14
27 26 26 25 25 25 24 24 24 24 23 23 23 22 22 22 22 21 21 21 21 20 20 20 20 21 21 20 20 20 20 20 21 21 21 21 21 21 21 20 20 20 20 20 20 20 20 20 20 19 19 18 18 18 18 19 19 19 19 19 19 19 19 19 20 20 20 19 19 18 17 17 16 16 16 16 16 16 16 16 15 15 15 15 15 14
27 26 26 25 25 24 24 24 24 24 23 23 23 22 22 22 22 21 21 21 21 21 21 21 21 21 21 21 21 21 20 20 20 20 20 21 21 21 21 20 20 20 20 20 20 21 20 20 20 20 19 18 18 17 18 18 19 19 19 19 19 19 19 19 20 20 19 19 18 18 17 17 16 16 16 16 16 16 16 16 16 16 16 16 16 15
27 26 26 25 25 24 24 24 24 24 23 23 23 23 22 22 22 21 21 21 21 21 21 21 21 21 21 21 21 21 21 20 19 19 20 20 21 21 21 21 20 20 20 21 21 21 21 20 20 20 19 19 18 18 18 18 19 19 20 19 19 19 18 19 20 20 19 19 18 18 17 17 16 16 16 16 16 16 16 16 16 16 16 16 16 16
27 26 26 25 25 25 25 24 24 24 23 23 23 23 22 22 22 22 21 21 21 21 21 21 21 21 21 21 21 21 21 21 20 19 19 20 20 21 21 21 21 21 21 21 21 21 21 20 20 20 19 19 18 18 18 18 19 19 20 20 20 20 19 19 19 19 19 18 18 17 17 17 17 16 16 16 16 16 16 16 16 16 16 16 16 16
27 26 26 26 25 25 25 25 24 24 24 23 23 23 22 22 22 22 22 22 21 21 21 21 21 21 21 21 21 21 21 21 20 20 19 19 20 20 21 21 21 21 21 21 21 21 21 21 20 20 19 19 19 18 18 19 19 19 20 20 20 20 19 18 18 18 19 18 18 17 17 17 17 16 16 16 16 16 16 16 16 16 17 17 17 17
28 27 27 26 26 25 25 25 25 24 24 23 23 23 23 22 22 22 22 22 22 21 21 22 21 21 21 22 22 21 21 21 21 20 20 20 20 20 20 21 21 21 21 21 21 21 21 21 20 20 19 19 19 19 19 19 19 19 19 20 20 19 19 18 18 18 18 18 18 17 17 17 17 17 17 17 16 16 16 17 17 17 17 17 17 17
28 28 27 27 26 26 25 25 24 24 24 23 23 23 23 23 22 22 22 22 22 22 22 22 22 22 22 22 22 22 21 21 21 21 20 20 20 20 20 20 20 21 21 21 21 21 21 21 20 20 20 19 19 19 19 19 19 19 20 20 19 19 19 19 18 18 18 18 18 17 17 17 17 17 17 17 17 17 17 17 17 17 17 17 17 17
29 29 28 27 27 26 25 25 25 24 24 23 23 23 23 23 23 23 23 23 22 22 22 22 22 22 22 22 22 22 22 21 21 21 21 21 21 20 20 20 20 20 20 20 20 20 20 20 20 20 20 20 19 19 20 19 19 19 19 19 19 19 19 19 18 17 17 17 17 17 17 17 17 17 17 17 17 17 17 17 17 17 18 17 17 17
30 29 28 28 27 26 26 25 25 24 24 24 23 23 23 23 23 23 23 23 23 23 22 22 22 22 22 22 22 22 22 22 21 21 21 21 21 21 21 21 21 21 20 20 20 20 20 20 20 20 20 20 20 20 20 20 20 19 19 19 19 19 19 19 18 18 17 17 17 17 17 17 17 17 17 17 17 17 17 17 17 17 17 18 18 17
30 29 29 28 27 27 26 25 25 25 24 24 24 23 23 23 23 23 23 23 23 23 23 23 23 23 22 22 22 22 22 22 22 22 22 22 22 21 21 21 21 21 21 21 21 20 20 20 20 20 20 20 20 20 20 20 20 20 19 19 19 19 19 19 18 18 18 17 17 17 17 17 17 17 17 17 17 17 17 17 17 17 17 18 18 18
30 30 29 28 28 27 26 26 25 25 24 24 24 24 24 23 23 23 24 24 24 23 23 23 23 23 23 23 23 23 23 22 22 22 22 22 22 22 22 22 22 22 21 21 21 20 20 20 20 20 21 21 21 21 20 20 20 20 20 20 19 19 19 19 18 18 18 18 17 17 17 17 17 17 17 17 17 17 17 17 17 17 17 17 17 18
Wind_Direction
237 239 243 246 249 250 251 251 251 250 250 251 251 251 253 255 258 259 260 261 262 262 263 263 263 264 265 266 268 271 273 276 278 279 281 282 284 286 287 289 290 291 293 294 294 295 294 294 294 294 293 293 292 292 293 293 294 294 293 291 290 289 288 287 286 286 286 286 285 285 282 280 279 279 280 281 280 277 272 264 256 250 246 246 248 253
236 240 244 247 248 249 249 249 249 248 249 249 250 252 254 257 259 259 259 259 260 261 262 262 263 263 265 267 269 271 273 275 276 277 279 281 283 285 286 288 289 290 292 292 293 293 293 294 294 293 293 293 293 293 293 293 293 293 292 291 290 289 288 287 286 285 284 283 283 281 279 277 275 276 277 277 275 271 264 256 250 246 244 245 249 254
237 241 244 246 246 247 247 247 247 248 248 249 250 253 255 258 259 259 259 259 259 260 261 262 262 263 265 267 269 271 272 273 274 275 277 279 281 283 285 287 288 289 290 291 292 292 293 293 293 293 293 292 292 293 293 292 292 291 290 290 289 289 288 287 286 284 283 282 281 280 276 274 272 272 273 273 270 264 256 250 245 243 243 245 249 254
237 241 243 244 245 246 246 246 246 247 248 250 251 253 256 257 258 259 258 258 259 260 261 262 262 264 266 267 269 270 271 271 272 273 275 277 280 282 284 286 287 288 289 290 291 292 292 292 293 292 292 292 292 292 292 291 291 290 288 288 287 287 287 286 284 283 281 280 279 277 273 270 269 270 270 269 264 258 250 245 242 241 242 244 248 253
237 240 242 243 245 246 246 245 246 247 248 250 253 254 256 257 257 257 257 258 259 260 261 262 263 264 266 268 269 269 269 270 270 272 273 276 278 281 283 284 286 287 288 289 290 291 292 292 292 292 292 292 292 292 291 290 289 288 286 285 285 284 284 282 281 280 278 277 275 273 270 268 268 268 268 265 260 253 245 241 239 240 240 243 247 250
237 239 241 244 245 246 246 245 245 246 249 251 253 254 255 256 256 256 257 257 259 260 262 262 264 265 267 268 268 268 267 268 269 270 272 274 277 279 281 283 284 286 287 289 290 290 291 291 291 292 292 292 291 291 290 288 287 286 284 283 282 281 280 279 278 277 275 274 272 270 268 267 267 267 266 262 255 247 241 237 237 239 240 242 245 248
236 239 242 244 246 246 245 244 245 246 248 250 252 254 255 255 255 256 257 258 260 261 262 263 265 266 267 267 267 266 266 267 268 269 271 273 275 277 280 281 283 285 286 288 289 289 290 290 290 291 291 291 291 290 289 287 285 283 282 281 280 279 278 276 275 274 272 271 269 267 266 266 266 265 263 257 250 242 236 235 236 238 240 241 243 246
236 239 242 244 244 244 244 244 245 247 248 250 251 252 254 255 256 256 257 259 260 261 263 265 266 267 267 266 265 265 264 265 266 268 270 272 274 276 278 280 282 284 285 287 287 288 288 289 289 290 291 291 290 289 288 286 284 282 280 279 277 276 275 274 272 271 269 267 266 264 264 264 264 262 258 252 244 237 233 232 235 238 240 241 241 243
236 240 242 243 242 242 242 244 245 247 249 250 251 251 252 254 255 256 258 259 260 262 264 265 266 267 266 265 264 263 263 264 266 267 269 271 273 274 276 278 280 282 284 285 286 286 287 287 288 289 290 290 289 288 286 285 283 281 279 277 276 274 273 272 270 268 266 264 263 262 262 261 261 258 252 245 238 233 231 232 235 238 239 240 240 240
237 240 241 242 241 241 242 244 246 247 249 250 252 252 253 253 254 256 257 258 260 263 264 265 265 266 266 265 263 262 262 263 265 267 269 270 272 273 275 277 279 281 282 283 284 284 285 286 287 288 289 289 288 287 285 283 281 280 278 276 274 273 271 270 267 265 263 261 260 259 259 259 257 252 246 238 232 229 230 232 235 237 239 239 238 238
239 240 240 240 241 241 242 244 246 248 249 251 252 253 254 254 254 255 257 259 260 262 264 265 265 264 264 263 262 261 261 262 264 266 268 269 271 272 274 276 278 280 281 282 282 283 284 285 286 287 287 287 286 285 283 282 280 278 276 275 273 271 270 267 265 262 259 257 257 256 256 255 251 246 238 232 228 228 230 233 235 236 237 237 236 236
239 239 239 240 240 241 243 245 246 248 249 250 252 253 254 254 255 256 258 260 261 262 263 264 264 264 262 262 261 261 261 262 264 265 266 268 270 271 273 275 276 278 279 280 280 281 282 283 285 285 286 285 284 283 282 280 278 277 275 273 271 270 268 265 262 259 256 254 254 253 253 251 246 239 232 227 226 226 229 231 233 233 234 234 233 232
238 238 238 240 241 242 244 245 246 247 249 250 251 252 253 254 256 258 260 261 262 263 263 263 263 263 262 261 260 260 261 262 264 265 266 268 269 271 272 273 275 276 277 278 279 280 281 282 283 284 284 283 282 281 280 278 277 275 273 271 270 268 265 262 259 255 253 251 251 250 249 245 239 232 227 224 224 226 228 229 230 230 231 230 229 228
236 237 239 241 242 243 244 245 246 248 249 251 252 253 254 255 257 259 261 263 263 263 263 263 262 262 261 261 260 259 260 261 263 265 266 267 269 270 271 272 274 275 276 277 278 279 280 280 281 282 282 281 280 279 278 277 275 273 271 269 267 265 262 259 255 252 249 248 248 247 244 240 233 226 222 221 222 224 226 227 227 227 227 226 224 223
234 237 240 243 244 244 245 245 247 248 250 251 253 254 255 256 258 259 261 262 263 262 262 261 261 261 260 260 259 258 258 260 262 263 265 266 267 268 268 270 272 273 274 276 278 278 279 279 279 280 280 279 278 277 276 275 273 271 269 267 264 262 259 256 252 248 246 245 244 243 239 233 226 221 219 219 221 223 224 224 224 224 223 222 221 219
236 239 242 244 245 245 246 246 248 249 251 252 253 254 256 257 258 259 260 261 261 261 260 259 259 260 260 259 259 258 258 259 261 262 263 264 265 266 266 268 270 272 273 275 276 277 277 277 277 277 277 276 276 275 274 273 271 269 266 264 261 258 255 252 248 245 243 242 241 238 233 226 221 217 216 218 220 221 222 222 222 222 221 220 218 216
240 242 244 245 246 246 247 248 249 250 252 253 254 255 257 258 258 259 260 260 259 259 259 258 257 257 258 259 258 257 257 258 260 260 261 262 264 264 264 266 268 270 272 273 274 274 275 275 275 275 274 274 274 273 272 271 269 266 264 261 258 255 251 248 244 242 240 239 237 233 227 221 217 215 216 217 219 220 221 221 220 220 219 218 217 215
245 246 247 247 247 247 248 249 250 251 252 253 255 256 257 258 258 258 258 258 258 258 258 257 256 256 256 256 256 256 255 256 258 259 260 261 262 263 264 265 267 268 270 272 272 272 273 273 273 272 272 272 272 271 270 269 266 264 260 257 254 251 248 244 241 239 237 236 233 228 223 218 215 215 216 218 219 220 220 219 219 218 218 217 216 215
248 248 249 249 249 249 249 250 251 252 253 254 255 256 257 257 258 257 257 257 257 257 256 256 256 256 256 256 256 255 253 255 257 259 260 260 261 262 263 264 265 267 268 270 270 270 270 270 270 270 270 270 270 269 268 266 264 260 257 254 251 248 245 241 238 236 234 232 229 224 219 216 214 215 217 218 219 219 219 219 218 218 217 216 216 215
249 249 249 249 249 250 250 251 251 252 252 253 254 255 256 256 256 256 256 256 256 256 256 256 256 256 256 257 256 254 253 254 256 258 260 260 260 261 262 263 264 265 267 268 269 269 269 268 268 268 268 268 268 267 266 263 260 257 253 251 248 245 242 238 235 233 231 229 226 221 217 215 214 215 217 219 219 219 219 218 217 217 216 216 216 216
249 249 249 249 249 250 250 251 251 251 252 252 253 254 255 255 255 255 256 256 255 255 255 255 256 256 257 257 256 254 252 253 255 257 260 260 260 260 261 262 262 263 265 266 267 267 267 267 266 266 267 266 266 265 263 260 257 253 250 247 244 242 239 235 233 231 229 227 223 219 216 214 214 216 217 219 219 219 218 218 217 217 216 216 216 216
248 248 248 248 249 249 250 251 250 250 251 251 252 253 254 255 255 255 255 255 254 254 255 255 256 256 257 257 256 254 251 253 255 257 259 260 259 259 259 260 261 262 263 265 266 266 265 265 265 265 265 264 263 262 260 257 253 249 246 243 241 239 236 233 231 229 227 224 221 218 215 214 214 216 218 219 219 219 218 217 217 217 216 216 217 217
247 247 247 248 248 249 249 250 250 250 250 251 252 253 255 256 256 256 256 255 255 255 255 255 256 256 257 257 256 254 252 253 254 256 257 258 258 257 258 258 259 261 262 263 264 264 264 264 263 263 263 262 261 259 257 253 249 245 242 240 238 236 233 231 229 227 225 222 219 216 215 214 215 216 218 218 219 218 218 217 217 217 217 217 217 218
246 247 247 247 247 248 249 249 250 250 251 252 253 255 256 257 258 258 257 256 255 255 255 255 255 256 256 256 255 254 253 252 253 255 256 257 257 256 256 256 258 259 261 262 263 263 263 263 262 261 261 260 259 256 253 249 245 242 239 237 235 233 230 228 227 225 223 221 218 215 214 214 215 216 217 218 218 218 217 217 217 217 217 218 218 219
247 247 248 248 247 248 248 249 250 251 252 253 254 255 256 257 257 257 257 256 254 254 253 253 254 254 255 254 254 253 253 251 252 253 255 256 256 255 254 254 256 258 259 261 261 261 262 262 261 260 259 258 256 253 249 246 242 238 236 234 232 230 228 226 224 223 221 219 217 214 213 214 215 216 217 218 218 218 217 217 217 217 217 218 219 220
246 247 247 247 247 247 247 248 249 250 251 253 254 255 255 256 255 255 254 253 252 251 251 251 252 253 254 253 253 252 252 251 251 252 253 254 254 254 253 253 254 256 258 259 260 260 260 261 261 259 258 255 253 249 245 242 238 235 233 231 229 227 225 224 223 222 220 218 216 214 213 214 215 216 218 218 218 218 218 217 217 218 218 219 220 221
245 246 246 246 246 246 247 248 249 250 251 252 253 253 254 254 253 252 251 250 249 249 249 250 252 253 253 253 252 251 250 250 250 251 251 252 252 252 252 252 253 254 256 257 258 259 259 259 259 258 256 253 249 246 241 238 234 232 230 229 227 225 223 222 221 221 220 218 216 214 213 214 215 217 218 219 219 219 219 218 218 219 219 220 221 223
244 245 245 245 245 246 247 248 249 250 251 251 251 251 252 252 251 250 249 249 248 248 248 249 251 252 253 253 252 251 250 249 249 249 250 250 251 252 251 251 252 253 254 255 257 257 257 257 257 256 254 250 246 242 238 234 231 230 228 227 225 223 221 221 221 221 220 218 216 214 213 214 216 217 219 219 220 220 220 220 220 220 221 221 223 224
243 244 244 245 246 246 247 248 249 250 251 251 250 250 251 251 251 249 249 248 248 248 248 249 250 252 252 252 252 251 250 249 248 248 248 249 250 251 250 249 250 251 252 253 255 256 256 255 254 253 251 247 242 238 234 231 229 228 226 225 223 221 220 220 221 221 220 218 216 214 214 215 216 218 219 220 220 220 220 221 221 222 222 223 225 226
243 244 245 246 246 247 248 249 250 250 250 250 249 249 250 251 251 250 249 248 247 247 248 250 250 251 251 251 252 252 251 249 247 245 246 247 249 249 248 247 248 249 249 251 253 255 255 254 251 249 247 243 239 235 232 229 227 226 225 223 222 221 220 220 221 221 220 218 216 214 214 215 216 218 219 220 220 221 221 221 222 223 224 225 227 229
243 244 245 247 248 249 249 250 251 250 250 249 249 249 249 250 250 249 249 247 247 247 248 249 250 250 249 250 251 252 252 248 245 243 243 245 247 247 246 245 246 247 248 248 250 253 254 252 249 246 242 238 235 232 229 227 226 225 223 222 221 220 220 220 221 221 220 218 216 215 215 215 217 218 219 220 221 221 221 222 223 224 225 227 229 232
243 244 246 247 248 249 250 250 250 250 250 249 249 248 248 248 248 248 247 247 247 247 248 249 249 248 248 249 250 251 251 247 244 241 242 244 245 246 244 244 244 246 247 247 248 250 252 250 246 242 238 234 231 229 227 225 224 223 222 222 221 221 220 220 220 220 219 217 215 215 215 216 217 218 220 220 221 221 222 223 224 225 226 227 230 232
243 244 245 247 248 248 249 249 249 249 249 249 249 248 248 247 247 246 246 247 247 247 248 248 248 247 247 248 249 250 250 247 244 241 240 242 244 244 243 243 243 243 245 246 247 247 248 246 243 239 234 230 228 226 225 224 223 222 221 221 221 221 220 220 220 219 218 216 215 214 215 216 217 219 220 221 221 222 223 224 224 226 226 228 230 232
242 243 244 245 246 247 248 248 248 248 248 248 248 248 247 247 246 246 246 246 247 248 248 248 247 246 246 247 248 248 249 247 243 239 239 241 243 243 242 242 241 241 242 243 245 245 245 242 238 234 231 228 225 224 224 224 223 222 221 221 221 221 220 220 219 218 217 215 214 214 215 216 218 219 220 221 222 223 223 224 225 227 228 229 230 231
241 242 243 244 244 245 245 246 246 246 246 247 247 247 247 246 246 246 246 246 247 248 249 249 248 247 245 245 245 246 246 246 242 239 238 240 242 242 241 241 240 240 240 241 242 242 241 237 232 229 226 225 224 223 223 223 223 222 221 220 220 220 220 219 219 217 216 215 214 214 215 217 218 220 221 222 223 223 224 225 226 228 229 230 231 233
240 241 241 242 242 243 243 243 244 244 245 246 246 246 245 245 245 245 246 246 247 248 248 249 248 248 247 246 245 244 245 244 242 238 237 238 240 241 241 241 240 239 238 238 238 238 235 232 228 224 222 222 223 223 223 223 223 223 222 221 221 220 220 219 218 217 215 215 215 215 216 218 220 221 222 223 224 224 225 226 227 229 230 232 233 235
239 239 240 241 241 241 242 242 242 243 243 244 245 244 244 244 244 245 245 246 247 247 248 248 247 247 247 246 245 245 244 243 241 239 237 238 239 240 240 240 239 238 236 235 234 233 230 227 224 222 221 221 222 223 222 222 222 223 223 223 222 221 220 219 217 216 215 214 215 216 217 219 221 222 223 224 225 225 226 227 228 230 231 233 235 237
238 238 239 239 240 240 240 241 241 242 242 243 243 243 243 243 243 244 245 246 246 246 247 247 246 246 245 244 244 243 242 240 239 238 237 237 238 239 239 238 237 236 235 233 231 229 226 223 221 220 221 221 222 222 222 221 221 222 223 223 222 221 220 218 217 215 215 215 216 217 218 220 222 223 224 225 226 227 227 228 229 231 232 234 236 238
237 238 238 238 239 239 239 240 240 241 241 242 242 242 241 241 242 243 244 245 246 246 246 245 245 245 244 243 242 241 239 238 238 237 236 235 236 236 236 236 235 234 233 231 229 226 223 221 220 220 220 221 221 222 222 221 221 221 221 222 222 221 220 218 216 215 215 215 216 218 220 221 222 224 225 225 226 227 229 230 231 232 233 235 236 238
236 237 237 237 238 238 239 239 240 240 240 240 240 240 240 241 242 243 244 244 245 245 244 244 243 243 243 242 241 240 239 238 237 236 236 235 234 234 234 233 232 230 229 228 226 224 222 221 220 220 219 220 221 221 221 221 221 221 220 220 220 220 219 218 216 216 215 216 217 219 221 222 223 224 225 226 227 228 229 230 231 233 234 236 237 240
236 236 237 237 237 238 238 239 239 239 239 239 239 239 240 240 241 242 243 244 244 244 243 243 242 242 242 241 240 239 239 238 237 236 235 234 232 231 230 231 230 228 226 224 223 222 221 220 220 219 219 220 221 221 221 221 220 219 219 218 218 218 217 217 216 216 216 217 218 219 221 222 224 225 226 226 227 228 230 231 232 234 235 237 239 240
235 236 236 236 236 237 237 238 238 238 238 238 238 239 240 240 241 241 242 243 244 244 243 242 241 240 240 240 240 239 238 238 237 236 235 233 231 229 228 227 227 226 224 222 221 221 220 220 220 219 219 219 220 221 222 221 220 219 218 218 217 216 217 217 217 217 217 218 219 220 221 223 225 226 227 227 228 229 231 232 233 235 237 239 240 242
235 235 236 236 236 236 236 236 236 237 237 238 238 239 240 240 240 241 241 242 243 243 242 241 240 238 237 237 238 238 238 237 236 235 233 231 229 227 225 224 223 223 223 221 220 220 220 220 220 220 220 220 220 220 221 220 219 219 218 217 215 215 216 217 218 218 218 219 220 221 222 224 225 226 227 228 230 231 232 233 235 237 238 240 241 243
235 235 235 235 235 235 236 236 236 236 237 237 238 239 239 240 240 240 241 242 242 242 241 241 239 238 236 235 235 235 236 236 235 234 232 230 228 225 223 221 220 220 221 221 220 219 219 219 220 220 221 221 220 220 220 219 218 218 217 216 215 215 215 217 217 218 219 220 221 221 222 224 225 226 228 230 231 233 234 235 236 238 240 241 243 244
234 234 234 234 234 235 235 236 236 236 237 237 238 238 239 240 240 240 240 240 240 240 240 239 238 237 235 235 234 234 234 234 234 233 231 229 227 225 222 220 219 219 220 221 221 220 219 219 219 220 220 221 221 220 219 218 217 217 216 216 216 216 217 218 218 218 219 220 221 222 223 223 225 227 230 232 233 235 236 237 238 239 241 242 244 245
234 234 233 234 234 234 234 235 235 236 236 237 238 238 239 239 239 240 239 239 239 239 239 238 237 236 235 234 233 232 232 231 231 231 230 228 226 223 221 220 219 220 220 221 221 221 221 220 219 219 220 220 221 221 220 218 217 216 215 215 215 216 217 218 218 219 219 220 222 223 223 224 226 229 230 232 234 236 238 239 240 241 242 243 244 246
233 232 233 233 233 233 234 235 235 235 236 237 237 238 238 238 239 239 239 238 238 237 237 237 237 235 234 233 232 230 229 229 228 228 227 226 225 223 221 220 219 219 220 220 220 221 221 220 220 219 220 220 220 220 220 219 217 215 214 214 214 215 216 217 218 219 220 221 222 223 224 226 228 230 232 234 236 238 239 240 241 242 243 244 245 246
232 232 232 232 232 233 233 234 234 235 235 236 237 237 237 237 237 237 237 237 236 236 236 236 236 235 234 233 231 230 228 227 226 225 224 224 223 222 221 219 219 219 219 219 219 219 219 219 219 220 220 220 219 219 218 218 217 216 214 214 214 215 216 218 219 220 221 222 223 224 225 227 229 231 233 235 237 239 240 242 243 244 244 245 246 247
232 232 232 232 232 232 233 233 234 234 235 235 236 237 237 237 236 236 236 236 235 235 234 234 234 234 233 231 230 229 227 226 225 224 223 222 222 221 220 220 220 220 220 220 220 220 220 219 219 220 220 220 220 218 217 216 216 215 215 214 214 215 217 218 220 221 222 223 224 225 227 229 231 233 234 236 238 240 241 243 244 245 246 247 247 248
232 232 232 232 232 232 232 233 233 234 234 235 235 236 236 236 236 236 235 235 235 235 234 234 233 233 232 230 229 227 226 224 223 222 222 221 221 220 220 219 219 219 220 220 221 221 221 221 221 221 221 220 219 218 216 215 214 214 214 215 216 217 218 220 221 222 224 225 226 227 229 231 233 235 236 237 239 241 243 244 245 247 248 248 248 249
231 232 232 232 232 232 232 232 233 234 234 235 235 235 235 235 235 235 234 234 234 234 234 234 233 232 231 230 228 226 225 223 222 221 221 221 220 220 219 219 219 219 219 219 219 220 220 221 222 223 223 221 219 218 216 214 213 213 214 215 217 218 220 221 223 224 225 227 228 229 231 232 234 235 237 238 240 242 244 245 246 247 248 249 249 249